Location: Wonder Lake State Park
(41.4960°N, 73.6562°W)
Time: 01:54:46
(UTC-04:00)

Daily predictions for brighter satellites

Satellite Brightness Start Highest point End
(mag) Time Altitude Azimuth Time Altitude Azimuth Time Altitude Azimuth
Cosmos 1953 4.4 00:03:57 10° NW 00:06:37 18° W 00:06:37 18° W
Cosmos 1340 3.8 00:08:08 43° NNW 00:08:08 43° NNW 00:10:57 10° N
COSMOS 2406 4.0 00:09:27 31° WSW 00:11:44 47° WNW 00:17:17 10° NNE
Cosmos 2278 4.5 00:06:38 10° NNW 00:12:01 42° ENE 00:13:16 37° E
Helios 1A Rocket 4.4 00:10:32 10° NNE 00:12:59 29° ENE 00:12:59 29° ENE
CZ-4B R/B 3.0 00:17:28 38° N 00:17:28 38° N 00:19:55 10° N
S3M 4.1 00:11:32 10° N 00:17:44 62° E 00:18:39 56° ESE
USA 238 DEB 4.3 00:13:43 18° WSW 00:19:03 54° NW 00:25:58 10° NNE
USA 238 4.3 00:13:55 18° WSW 00:19:08 55° NW 00:26:04 10° NNE
Terra 4.2 00:22:47 12° W 00:23:26 12° W 00:25:14 10° WNW
Cosmos 1655 Rocket 3.9 00:22:31 64° SSW 00:23:34 82° W 00:29:52 10° N
Timation 2 Rocket 4.4 00:25:14 51° SE 00:25:50 53° ESE 00:32:26 10° NE
CZ-4C R/B 2.0 00:26:52 74° ESE 00:26:52 74° ESE 00:32:40 10° NE
Lacrosse 5 4.1 00:25:30 10° NNW 00:29:26 22° NNE 00:33:22 10° ENE
Cosmos 1428 Rocket 4.3 00:30:12 68° SE 00:30:53 76° E 00:37:05 10° N
Cosmos 2082 Rocket 3.3 00:32:38 30° E 00:32:38 30° E 00:36:58 10° NE
Cosmos 1867 4.3 00:33:15 40° E 00:33:15 40° E 00:37:32 10° NE
Cosmos 1766 Rocket 3.9 00:34:24 64° N 00:34:24 64° N 00:38:14 10° N
Cosmos 1707 4.2 00:35:25 32° NW 00:35:25 32° NW 00:38:20 10° N
Landsat 5 4.3 00:40:51 45° NNW 00:40:51 45° NNW 00:43:44 10° NNW
H-2A R/B 3.4 00:36:35 10° N 00:39:24 41° NNW 00:39:24 41° NNW
Cosmos 1833 Rocket 4.0 00:41:56 28° E 00:41:56 28° E 00:46:11 10° NE
Cosmos 1328 Rocket 4.2 00:39:48 10° N 00:43:26 51° NE 00:43:26 51° NE
NOSS 3-3 (A) 4.4 00:37:42 10° NW 00:45:11 88° WSW 00:47:25 52° SSE
NOSS 3-3 (C) 4.4 00:37:49 10° NW 00:45:19 89° WSW 00:47:33 52° SSE
Cosmos 1076 Rocket 4.3 00:46:11 48° NW 00:46:11 48° NW 00:49:37 10° N
Cosmos 2221 3.7 00:41:40 10° NNW 00:44:51 35° WNW 00:44:51 35° WNW
Cosmos 1943 Rocket 4.2 00:43:27 10° WNW 00:46:20 14° W 00:46:20 14° W
Meteor 1-24 Rocket 4.0 00:48:55 55° WSW 00:49:47 61° WNW 00:55:40 10° N
CENTAUR R/B 3.9 00:50:30 24° ESE 00:50:30 24° ESE 00:55:14 10° ENE
CZ-2C R/B 4.3 00:49:12 31° E 00:50:37 36° ENE 00:55:44 10° N
Cosmos 2026 Rocket 4.5 00:49:48 42° WSW 00:50:58 47° WNW 00:56:48 10° N
Cosmos 841 Rocket 4.0 00:47:46 10° N 00:52:55 52° ENE 00:53:26 50° E
NOSS 3-2 (C) 3.4 00:51:59 62° SW 00:53:08 83° NW 00:59:51 10° NE
Cosmos 1515 Rocket 4.1 00:51:57 10° N 00:55:46 55° NE 00:55:46 55° NE
Cosmos 2228 Rocket 3.6 00:54:44 10° NNW 00:58:16 54° NW 00:58:16 54° NW
Cosmos 1656 4.3 00:59:56 10° NNW 01:05:30 51° ENE 01:06:51 42° ESE
Cosmos 1066 4.5 01:14:23 82° SW 01:14:35 85° W 01:20:05 10° N
CZ-2C R/B 2.5 01:10:16 10° NNE 01:15:51 82° ESE 01:16:07 79° SSE
Cosmos 2344 3.6 01:17:28 52° SSW 01:19:42 81° ESE 01:28:26 10° NE
ASTEX 1 4.2 01:19:20 10° NNE 01:24:03 41° E 01:24:12 41° E
Meteor 1-21 Rocket 4.1 01:24:23 72° SW 01:24:53 78° W 01:30:35 10° N
Cosmos 883 Rocket 4.4 01:19:14 10° N 01:25:35 79° W 01:26:30 66° SSW
In-Cosmos 22 4.2 01:26:40 64° WSW 01:27:05 66° WNW 01:32:43 10° N
Cosmos 836 Rocket 4.4 01:24:24 10° NNW 01:29:38 83° ENE 01:29:48 81° ESE
Nadezhda 2 Rocket 4.4 01:29:53 64° S 01:30:56 84° E 01:37:16 10° N
ISS 0.0 01:29:37 10° NNW 01:31:33 15° N 01:33:29 10° NE
Cosmos 724 4.1 01:32:42 75° SSW 01:33:13 86° ESE 01:39:07 10° NNE
Cosmos 2369 4.1 01:27:55 10° NW 01:33:02 49° W 01:33:02 49° W
Meteor 2-2 Rocket 4.1 01:28:25 10° NNW 01:34:08 76° W 01:34:36 71° SW
Genesis I 4.5 01:36:15 10° NW 01:38:44 37° NW 01:38:44 37° NW
Cosmos 1818 4.4 01:35:54 10° NW 01:39:57 37° W 01:39:57 37° W
Cosmos 1707 Rocket 4.4 01:37:47 10° N 01:41:56 41° ENE 01:42:04 40° E
Cosmos 2058 3.5 01:50:53 52° ENE 01:50:53 52° ENE 01:54:34 10° NNE
Lacrosse 5 rocket 3.8 01:49:50 10° NNW 01:53:20 23° NNE 01:56:56 10° E
Cosmos 1151 Rocket 3.7 01:50:00 10° NNW 01:53:18 44° NW 01:53:18 44° NW
Cosmos 2315 Rocket 4.0 01:48:50 10° NNW 01:55:06 65° W 01:56:08 56° SW
Cosmos 1763 Rocket 4.3 01:50:19 10° NW 01:54:40 38° W 01:54:40 38° W
Cosmos 1980 Rocket 2.5 01:51:10 10° NNW 01:56:46 63° ENE 01:58:50 38° SE
Cosmos 2151 3.3 01:57:57 62° NW 01:57:57 62° NW 02:01:43 10° N
Cosmos 540 Rocket 3.5 01:54:19 10° NNW 01:59:30 75° ENE 02:00:22 60° SE
BREEZE-M DEB (TANK) 4.4 02:02:07 18° E 02:02:07 18° E 02:04:13 10° ENE
USA 215 3.5 01:58:20 10° NE 02:04:41 51° SE 02:05:58 45° SSE
Cosmos 1745 Rocket 4.3 02:04:06 43° SSE 02:06:03 63° E 02:12:19 10° NNE
ERS-2 3.5 02:05:04 10° NNE 02:08:05 32° E 02:08:05 32° E
Cosmos 1437 Rocket 4.0 02:06:23 10° NNW 02:08:56 32° NW 02:08:56 32° NW
Cosmos 1300 3.1 02:06:29 10° N 02:09:48 61° NNE 02:09:48 61° NNE
Nadezhda 1 Rocket 4.3 02:06:56 10° N 02:13:02 61° E 02:15:38 34° SE
Lacrosse 5 1.8 02:08:00 10° NW 02:13:05 81° NE 02:15:00 39° SE
CZ-4C R/B 4.2 02:12:00 12° W 02:15:57 23° NW 02:20:51 10° NNE
Cosmos 2082 Rocket 3.1 02:14:28 32° W 02:16:01 39° WNW 02:21:19 10° N
Sich 1 3.0 02:16:31 71° ESE 02:16:41 72° E 02:21:07 10° NNE
Cosmos 1697 Rocket 2.8 02:11:44 10° NNW 02:17:16 55° WSW 02:17:38 54° SW
Meteor 1-4 Rocket 4.4 02:19:51 10° NNE 02:23:07 27° ENE 02:24:17 23° ESE
Cosmos 1833 Rocket 3.4 02:23:37 35° W 02:25:10 42° WNW 02:30:31 10° NNE
USA 32 4.5 02:22:06 10° NNW 02:27:04 44° W 02:27:30 43° WSW
Cosmos 1437 3.8 02:29:10 44° NNW 02:29:10 44° NNW 02:31:38 10° N
CZ-2C R/B 4.1 02:30:16 32° W 02:30:26 32° W 02:35:28 10° NNW
Cosmos 371 Rocket 3.4 02:27:09 10° NNW 02:32:00 70° ENE 02:33:43 39° SE
BREEZE-M DEB (TANK) 4.4 02:27:04 10° WNW 02:33:23 31° N 02:36:04 10° ENE
ATLAS 5 CENTAUR R/B 3.6 02:32:26 18° SE 02:33:41 20° ESE 02:37:16 10° ENE
BREEZE-M TANK 2.8 02:26:16 10° WSW 02:34:35 73° NNW 02:37:27 10° ENE
PSLV R/B 3.7 02:31:03 10° N 02:35:36 63° WNW 02:36:05 59° WSW
Abrixas 4.3 02:36:45 28° NNW 02:37:00 28° NNW 02:39:46 10° NE
Cosmos 1455 3.7 02:34:08 10° NNE 02:37:35 32° ENE 02:38:55 25° ESE
CENTAUR R/B 2.8 02:37:39 37° WSW 02:40:09 63° NW 02:47:01 10° NNE
Cosmos 1726 2.5 02:36:34 10° NNW 02:39:41 54° NW 02:39:41 54° NW
Cosmos 968 Rocket 3.4 02:39:19 54° S 02:40:30 82° ESE 02:45:40 10° NNE
Cosmos 2360 4.1 02:36:09 10° NNW 02:41:53 82° WSW 02:44:22 35° SSE
Aureole 1 Rocket 4.4 02:45:38 10° NW 02:49:57 33° WSW 02:49:57 33° WSW
IRS-P3 4.1 02:47:52 10° N 02:53:12 74° WNW 02:54:57 43° SSW
Resurs 1-4 Rocket 4.0 02:49:31 10° NE 02:53:43 23° E 02:57:54 10° SE
AQUA 3.7 02:51:45 10° NNE 02:56:33 85° ESE 02:58:02 45° S
SL-16 R/B 2.3 02:52:46 10° NNW 02:58:27 75° ENE 03:03:59 11° SSE
SL-14 R/B 4.1 02:59:09 34° WNW 02:59:09 34° WNW 03:02:41 10° N
Cosmos 1626 2.5 02:59:56 47° SE 03:00:42 60° E 03:04:25 10° NNE
Cosmos 1538 Rocket 4.0 02:56:15 10° NNW 03:01:24 62° WSW 03:03:11 39° SSW
Cosmos 1869 3.8 02:58:40 10° N 03:02:35 57° E 03:04:20 30° SSE
Spot 4 Rocket 4.5 02:58:11 10° NNE 03:03:16 56° E 03:05:53 27° SSE
Cosmos 923 Rocket 4.3 02:59:49 10° NNW 03:05:05 66° ENE 03:10:12 10° SSE
Cosmos 2242 Rocket 4.1 03:01:39 10° NNW 03:05:44 38° W 03:06:03 38° WSW
ISS -1.5 03:05:43 10° NW 03:08:44 33° NNE 03:11:44 10° E
Cosmos 2322 Rocket 2.1 03:05:11 10° NNW 03:10:50 82° WSW 03:15:23 16° SSE
Cosmos 1703 3.7 03:11:01 42° W 03:11:31 44° W 03:15:20 10° N
Cosmos 2181 Rocket 4.0 03:05:53 10° N 03:12:05 79° E 03:17:04 17° SSE
OAO 3 Rocket 3.6 03:13:20 37° S 03:13:27 37° S 03:17:47 10° ESE
Cosmos 1633 Rocket 4.2 03:13:20 27° W 03:14:03 28° WNW 03:17:54 10° NNW
Cosmos 1680 Rocket 4.0 03:09:16 10° NNW 03:14:26 61° ENE 03:19:34 10° SSE
Cosmos 1777 Rocket 4.0 03:14:31 36° SSW 03:16:45 77° WNW 03:22:04 10° NNE
ATLAS CENTAUR R/B 4.5 03:17:03 10° N 03:20:36 20° NE 03:23:57 10° E
Cosmos 1271 Rocket 2.8 03:18:00 10° NNW 03:21:42 52° W 03:22:18 46° SW
Cosmos 773 Rocket 3.9 03:17:13 10° NNW 03:22:20 71° WSW 03:25:50 21° S
CBERS-1 4.3 03:18:36 10° N 03:23:36 55° WNW 03:25:50 31° SW
EO 1 Del DPAF 3.7 03:23:34 16° SSE 03:26:37 63° ENE 03:30:30 10° N
SL-08 R/B 4.0 03:27:42 31° SW 03:29:02 37° W 03:33:36 10° NNW
Cosmos 2292 Rocket 2.7 03:29:25 51° SSW 03:30:07 80° W 03:33:38 10° N
Cosmos 1703 Rocket 3.9 03:25:49 10° N 03:30:09 62° E 03:34:04 12° SSE
Cosmos 1933 3.7 03:27:20 10° N 03:31:20 64° E 03:34:38 15° SSE
ARIANE 5 R/B 2.6 03:26:56 10° NNE 03:32:03 72° ESE 03:35:28 21° S
Lacrosse 5 rocket 1.4 03:28:36 10° NW 03:33:00 71° SW 03:37:32 10° SE
Cosmos 1470 Rocket 4.4 03:31:57 29° WSW 03:33:19 35° WNW 03:37:24 10° N
GPS 2-05 Rocket1 4.1 03:33:46 24° SSE 03:33:46 24° SSE 03:36:12 10° ESE
ERS-1 4.5 03:28:46 10° NNE 03:33:54 84° WNW 03:37:02 24° SSW
IRS-1D 3.9 03:28:39 10° NNE 03:33:59 67° ESE 03:37:56 18° S
ADEOS 3.7 03:30:39 10° N 03:35:48 61° WNW 03:38:40 26° SW
H-2A R/B 4.4 02:57:28 10° W 03:37:28 39° SSW 03:43:28 10° SE
Cosmos 1980 Rocket 3.6 03:36:30 10° WNW 03:40:12 18° W 03:40:33 18° WSW
CZ-2D R/B 2.5 03:35:34 10° NNE 03:40:46 60° E 03:45:19 14° S
Cosmos 2360 Rocket 2.6 03:35:56 10° NNW 03:41:33 65° ENE 03:47:08 10° SE
ERS-2 4.1 03:39:33 10° NNW 03:41:59 17° WNW 03:42:57 16° W
Cosmos 2074 Rocket 4.2 03:37:57 13° S 03:43:37 72° E 03:49:51 10° NNE
SL-16 R/B 2.6 03:39:46 10° SSE 03:46:02 89° ENE 03:52:21 10° NNW
USA 215 3.8 03:41:23 10° NE 03:47:40 52° NNW 03:53:19 13° WSW
Cosmos 2184 Rocket 4.2 03:42:32 12° S 03:48:33 76° E 03:54:54 10° N
USA 161 3.0 03:54:45 17° WNW 03:54:45 17° WNW 03:55:48 10° NW
Lacrosse 5 3.6 03:52:20 10° W 03:54:01 15° W 03:54:01 15° W
Cosmos 2219 3.9 03:50:55 12° S 03:56:04 52° ESE 04:01:39 10° NNE
Cosmos 2322 3.8 03:51:00 10° NNW 03:56:46 85° ENE 04:02:30 10° SSE
Cosmos 2327 Rocket 4.5 03:51:17 13° S 03:56:53 90° E 04:03:08 10° N
Okean 1-7 3.2 03:53:30 10° N 03:57:56 78° E 04:02:16 10° S
Meteor 1-4 Rocket 4.2 03:55:28 10° NW 03:58:08 18° W 03:58:39 18° W
CRYOSAT 2 4.4 04:01:30 10° N 04:06:21 68° W 04:10:45 12° SSW
SL-08 ROCKET BODY 4.4 04:02:05 10° S 04:08:06 89° ESE 04:14:17 10° N
Cosmos 2112 Rocket 4.2 04:03:49 10° NNW 04:08:51 51° WSW 04:13:50 10° S
Okean O Rocket 2.4 04:05:17 10° NNE 04:09:37 51° E 04:13:54 10° S
Cosmos 1455 4.0 04:10:48 10° NW 04:13:01 15° W 04:13:56 14° WSW
ATLAS 5 CENTAUR R/B 2.3 04:13:59 16° SW 04:17:50 55° NW 04:23:02 10° NNE
H-2A R/B 4.1 04:14:58 12° WSW 04:20:41 49° S 04:59:06 10° ESE
COSMOS 2428 3.0 04:21:25 10° NNW 04:27:07 75° ENE 04:32:47 10° SSE
Resurs 1-4 Rocket 2.6 04:28:41 10° N 04:33:44 45° WNW 04:38:46 10° SW
Cosmos 1892 3.2 04:30:26 10° S 04:34:16 63° E 04:38:07 10° NNE
Okean-O 4.2 04:32:01 10° NNE 04:36:05 34° E 04:40:07 10° SSE
UNKNOWN OBJECT B 3.3 04:33:20 10° N 04:36:56 41° WNW 04:40:35 10° SW
Cosmos 2298 Rocket 4.4 04:36:02 10° SW 04:41:14 53° WNW 04:46:27 10° N
SL-16 R/B 3.8 04:38:47 10° WNW 04:41:50 15° W 04:44:54 10° SW
Cosmos 292 Rocket 3.8 04:39:52 10° NNW 04:44:42 86° WSW 04:49:29 10° SSE
ISS -2.6 04:42:12 10° WNW 04:45:10 32° SW 04:48:06 10° SSE
Cosmos 2237 Rocket 4.0 04:41:46 10° N 04:47:02 37° ENE 04:52:17 10° SE
CZ-2C R/B 4.0 04:44:55 10° S 04:49:14 48° W 04:53:39 10° NNW
Cosmos 2237 4.2 04:43:49 10° NNW 04:49:32 71° WSW 04:55:13 10° SSE
SME Rocket 4.1 04:43:48 10° S 04:50:27 47° WSW 04:55:03 10° NNW
Meteor 2-3 Rocket 4.0 04:46:39 10° SSW 04:52:18 56° WNW 04:58:01 10° N
USA 229 DEB 3.9 04:46:44 10° SW 04:53:39 71° NW 05:00:40 10° NNE
USA 229 3.9 04:46:49 10° SW 04:53:45 72° NW 05:00:46 10° NNE
OAO 3 Rocket 4.1 04:52:23 10° WSW 04:56:28 30° SSW 05:00:35 10° SE
Cosmos 990 Rocket 4.0 04:52:10 10° SSW 04:57:21 89° W 05:02:33 10° NNE
